owner,sensor,date,latitude,longitude,vertical_datum,sea_water_temperature,qcFlag
Talos,ioos:station:wmo:42940:1,2021-06-01T00:07:00Z,27.6913,-91.1141,10.0,39.8,11133222
Talos,ioos:station:wmo:42940:1,2021-06-01T00:17:00Z,27.6913,-91.1141,10.0,44.2,11144222
Talos,ioos:station:wmo:42940:1,2021-06-01T00:27:00Z,27.6913,-91.1141,10.0,42.2,11144222
Talos,ioos:station:wmo:42940:1,2021-06-01T00:37:00Z,27.6913,-91.1141,10.0,36.7,11133222
Talos,ioos:station:wmo:42940:1,2021-06-01T00:47:00Z,27.6913,-91.1141,10.0,42.1,11144222
Talos,ioos:station:wmo:42940:1,2021-06-01T00:57:00Z,27.6913,-91.1141,10.0,41.3,11144222
Talos,ioos:station:wmo:42940:1,2021-06-01T01:07:00Z,27.6913,-91.1141,10.0,41.2,11144222
Talos,ioos:station:wmo:42940:1,2021-06-01T01:17:00Z,27.6913,-91.1141,10.0,40.0,11144222
Talos,ioos:station:wmo:42940:1,2021-06-01T01:27:00Z,27.6913,-91.1141,10.0,36.0,11133222
Talos,ioos:station:wmo:42940:1,2021-06-01T01:37:00Z,27.6913,-91.1141,10.0,36.0,11133222
Talos,ioos:station:wmo:42940:1,2021-06-01T01:47:00Z,27.6913,-91.1141,10.0,34.8,11111222
Talos,ioos:station:wmo:42940:1,2021-06-01T01:57:00Z,27.6913,-91.1141,10.0,34.8,11111222
Talos,ioos:station:wmo:42940:1,2021-06-01T02:07:00Z,27.6913,-91.1141,10.0,33.8,11111222
Talos,ioos:station:wmo:42940:1,2021-06-01T02:17:00Z,27.6913,-91.1141,10.0,35.2,11133222
Talos,ioos:station:wmo:42940:1,2021-06-01T02:27:00Z,27.6913,-91.1141,10.0,35.3,11133222
Talos,ioos:station:wmo:42940:1,2021-06-01T02:37:00Z,27.6913,-91.1141,10.0,35.7,11133222
Talos,ioos:station:wmo:42940:1,2021-06-01T02:47:00Z,27.6913,-91.1141,10.0,36.2,11133222
Talos,ioos:station:wmo:42940:1,2021-06-01T02:57:00Z,27.6913,-91.1141,10.0,35.5,11133222
Talos,ioos:station:wmo:42940:1,2021-06-01T03:07:00Z,27.6913,-91.1141,10.0,35.7,11133222
Talos,ioos:station:wmo:42940:1,2021-06-01T03:17:00Z,27.6913,-91.1141,10.0,35.5,11133222
Talos,ioos:station:wmo:42940:1,2021-06-01T03:27:00Z,27.6913,-91.1141,10.0,36.4,11133222
Talos,ioos:station:wmo:42940:1,2021-06-01T03:37:00Z,27.6913,-91.1141,10.0,28.4,11111222
Talos,ioos:station:wmo:42940:1,2021-06-01T03:47:00Z,27.6913,-91.1141,10.0,36.4,11133222
Talos,ioos:station:wmo:42940:1,2021-06-01T03:57:00Z,27.6913,-91.1141,10.0,34.5,11111222
Talos,ioos:station:wmo:42940:1,2021-06-01T04:07:00Z,27.6913,-91.1141,10.0,35.6,11133222
Talos,ioos:station:wmo:42940:1,2021-06-01T04:17:00Z,27.6913,-91.1141,10.0,36.7,11133222
Talos,ioos:station:wmo:42940:1,2021-06-01T04:27:00Z,27.6913,-91.1141,10.0,36.2,11133222
Talos,ioos:station:wmo:42940:1,2021-06-01T04:37:00Z,27.6913,-91.1141,10.0,36.9,11133222
Talos,ioos:station:wmo:42940:1,2021-06-01T04:47:00Z,27.6913,-91.1141,10.0,37.8,11133222
Talos,ioos:station:wmo:42940:1,2021-06-01T04:57:00Z,27.6913,-91.1141,10.0,37.6,11133222
Talos,ioos:station:wmo:42940:1,2021-06-01T05:07:00Z,27.6913,-91.1141,10.0,38.9,11133222
Talos,ioos:station:wmo:42940:1,2021-06-01T05:17:00Z,27.6913,-91.1141,10.0,41.9,11144222
Talos,ioos:station:wmo:42940:1,2021-06-01T05:27:00Z,27.6913,-91.1141,10.0,43.3,11144222
Talos,ioos:station:wmo:42940:1,2021-06-01T05:37:00Z,27.6913,-91.1141,10.0,46.9,11144222
Talos,ioos:station:wmo:42940:1,2021-06-01T05:47:00Z,27.6913,-91.1141,10.0,46.3,11144222
Talos,ioos:station:wmo:42940:1,2021-06-01T05:57:00Z,27.6913,-91.1141,10.0,45.0,11144222
Talos,ioos:station:wmo:42940:1,2021-06-01T06:07:00Z,27.6913,-91.1141,10.0,44.0,11144222
Talos,ioos:station:wmo:42940:1,2021-06-01T06:17:00Z,27.6913,-91.1141,10.0,44.3,11144222
Talos,ioos:station:wmo:42940:1,2021-06-01T06:27:00Z,27.6913,-91.1141,10.0,43.7,11144222
Talos,ioos:station:wmo:42940:1,2021-06-01T06:37:00Z,27.6913,-91.1141,10.0,45.2,11144222
Talos,ioos:station:wmo:42940:1,2021-06-01T06:47:00Z,27.6913,-91.1141,10.0,45.7,11144222
Talos,ioos:station:wmo:42940:1,2021-06-01T06:57:00Z,27.6913,-91.1141,10.0,48.0,11144222
Talos,ioos:station:wmo:42940:1,2021-06-01T07:07:00Z,27.6913,-91.1141,10.0,49.4,11144222
Talos,ioos:station:wmo:42940:1,2021-06-01T07:17:00Z,27.6913,-91.1141,10.0,45.4,11144222
Talos,ioos:station:wmo:42940:1,2021-06-01T07:27:00Z,27.6913,-91.1141,10.0,44.9,11144222
Talos,ioos:station:wmo:42940:1,2021-06-01T07:37:00Z,27.6913,-91.1141,10.0,46.4,11144222
Talos,ioos:station:wmo:42940:1,2021-06-01T07:47:00Z,27.6913,-91.1141,10.0,46.3,11144222
Talos,ioos:station:wmo:42940:1,2021-06-01T07:57:00Z,27.6913,-91.1141,10.0,46.1,11144222
Talos,ioos:station:wmo:42940:1,2021-06-01T08:07:00Z,27.6913,-91.1141,10.0,46.6,11144222
Talos,ioos:station:wmo:42940:1,2021-06-01T08:17:00Z,27.6913,-91.1141,10.0,43.8,11144222
Talos,ioos:station:wmo:42940:1,2021-06-01T08:27:00Z,27.6913,-91.1141,10.0,45.7,11144222
Talos,ioos:station:wmo:42940:1,2021-06-01T08:37:00Z,27.6913,-91.1141,10.0,46.4,11144222
Talos,ioos:station:wmo:42940:1,2021-06-01T08:47:00Z,27.6913,-91.1141,10.0,46.5,11144222
Talos,ioos:station:wmo:42940:1,2021-06-01T08:57:00Z,27.6913,-91.1141,10.0,44.9,11144222
Talos,ioos:station:wmo:42940:1,2021-06-01T09:07:00Z,27.6913,-91.1141,10.0,43.1,11144222
Talos,ioos:station:wmo:42940:1,2021-06-01T09:17:00Z,27.6913,-91.1141,10.0,46.3,11144222
Talos,ioos:station:wmo:42940:1,2021-06-01T09:27:00Z,27.6913,-91.1141,10.0,44.6,11144222
Talos,ioos:station:wmo:42940:1,2021-06-01T09:37:00Z,27.6913,-91.1141,10.0,45.1,11144222
Talos,ioos:station:wmo:42940:1,2021-06-01T09:47:00Z,27.6913,-91.1141,10.0,45.4,11144222
Talos,ioos:station:wmo:42940:1,2021-06-01T09:57:00Z,27.6913,-91.1141,10.0,43.7,11144222
Talos,ioos:station:wmo:42940:1,2021-06-01T10:07:00Z,27.6913,-91.1141,10.0,44.5,11144222
Talos,ioos:station:wmo:42940:1,2021-06-01T10:17:00Z,27.6913,-91.1141,10.0,44.8,11144222
Talos,ioos:station:wmo:42940:1,2021-06-01T10:27:00Z,27.6913,-91.1141,10.0,47.0,11144222
Talos,ioos:station:wmo:42940:1,2021-06-01T10:37:00Z,27.6913,-91.1141,10.0,48.2,11144222
Talos,ioos:station:wmo:42940:1,2021-06-01T10:47:00Z,27.6913,-91.1141,10.0,48.8,11144222
Talos,ioos:station:wmo:42940:1,2021-06-01T10:57:00Z,27.6913,-91.1141,10.0,48.4,11144222
Talos,ioos:station:wmo:42940:1,2021-06-01T11:07:00Z,27.6913,-91.1141,10.0,49.1,11144222
Talos,ioos:station:wmo:42940:1,2021-06-01T11:17:00Z,27.6913,-91.1141,10.0,49.3,11144222
Talos,ioos:station:wmo:42940:1,2021-06-01T11:27:00Z,27.6913,-91.1141,10.0,49.0,11144222
Talos,ioos:station:wmo:42940:1,2021-06-01T11:37:00Z,27.6913,-91.1141,10.0,49.2,11144222
Talos,ioos:station:wmo:42940:1,2021-06-01T11:47:00Z,27.6913,-91.1141,10.0,49.0,11144222
Talos,ioos:station:wmo:42940:1,2021-06-01T11:57:00Z,27.6913,-91.1141,10.0,49.1,11144222
Talos,ioos:station:wmo:42940:1,2021-06-01T12:07:00Z,27.6913,-91.1141,10.0,50.2,11144222
Talos,ioos:station:wmo:42940:1,2021-06-01T12:17:00Z,27.6913,-91.1141,10.0,47.0,11144222
Talos,ioos:station:wmo:42940:1,2021-06-01T12:27:00Z,27.6913,-91.1141,10.0,48.9,11144222
Talos,ioos:station:wmo:42940:1,2021-06-01T12:37:00Z,27.6913,-91.1141,10.0,50.1,11144222
Talos,ioos:station:wmo:42940:1,2021-06-01T12:47:00Z,27.6913,-91.1141,10.0,49.9,11144222
Talos,ioos:station:wmo:42940:1,2021-06-01T12:57:00Z,27.6913,-91.1141,10.0,48.6,11144222
Talos,ioos:station:wmo:42940:1,2021-06-01T13:07:00Z,27.6913,-91.1141,10.0,47.8,11144222
Talos,ioos:station:wmo:42940:1,2021-06-01T13:17:00Z,27.6913,-91.1141,10.0,44.9,11144222
Talos,ioos:station:wmo:42940:1,2021-06-01T13:27:00Z,27.6913,-91.1141,10.0,45.1,11144222
Talos,ioos:station:wmo:42940:1,2021-06-01T13:37:00Z,27.6913,-91.1141,10.0,44.9,11144222
Talos,ioos:station:wmo:42940:1,2021-06-01T13:47:00Z,27.6913,-91.1141,10.0,45.1,11144222
Talos,ioos:station:wmo:42940:1,2021-06-01T13:57:00Z,27.6913,-91.1141,10.0,46.0,11144222
Talos,ioos:station:wmo:42940:1,2021-06-01T14:07:00Z,27.6913,-91.1141,10.0,43.0,11144222
Talos,ioos:station:wmo:42940:1,2021-06-01T14:17:00Z,27.6913,-91.1141,10.0,44.0,11144222
Talos,ioos:station:wmo:42940:1,2021-06-01T14:27:00Z,27.6913,-91.1141,10.0,43.1,11144222
Talos,ioos:station:wmo:42940:1,2021-06-01T14:37:00Z,27.6913,-91.1141,10.0,41.5,11144222
Talos,ioos:station:wmo:42940:1,2021-06-01T14:47:00Z,27.6913,-91.1141,10.0,45.7,11144222
Talos,ioos:station:wmo:42940:1,2021-06-01T14:57:00Z,27.6913,-91.1141,10.0,45.9,11144222
Talos,ioos:station:wmo:42940:1,2021-06-01T15:07:00Z,27.6913,-91.1141,10.0,46.0,11144222
Talos,ioos:station:wmo:42940:1,2021-06-01T15:17:00Z,27.6913,-91.1141,10.0,45.5,11144222
Talos,ioos:station:wmo:42940:1,2021-06-01T15:27:00Z,27.6913,-91.1141,10.0,44.9,11144222
Talos,ioos:station:wmo:42940:1,2021-06-01T15:37:00Z,27.6913,-91.1141,10.0,44.7,11144222
Talos,ioos:station:wmo:42940:1,2021-06-01T15:47:00Z,27.6913,-91.1141,10.0,45.3,11144222
Talos,ioos:station:wmo:42940:1,2021-06-01T15:57:00Z,27.6913,-91.1141,10.0,45.0,11144222
Talos,ioos:station:wmo:42940:1,2021-06-01T16:07:00Z,27.6913,-91.1141,10.0,45.9,11144222
Talos,ioos:station:wmo:42940:1,2021-06-01T16:17:00Z,27.6913,-91.1141,10.0,45.9,11144222
Talos,ioos:station:wmo:42940:1,2021-06-01T16:27:00Z,27.6913,-91.1141,10.0,45.8,11144222
Talos,ioos:station:wmo:42940:1,2021-06-01T16:37:00Z,27.6913,-91.1141,10.0,46.1,11144222
Talos,ioos:station:wmo:42940:1,2021-06-01T16:47:00Z,27.6913,-91.1141,10.0,46.6,11144222
Talos,ioos:station:wmo:42940:1,2021-06-01T16:57:00Z,27.6913,-91.1141,10.0,46.7,11144222
Talos,ioos:station:wmo:42940:1,2021-06-01T17:07:00Z,27.6913,-91.1141,10.0,46.7,11144222
Talos,ioos:station:wmo:42940:1,2021-06-01T17:17:00Z,27.6913,-91.1141,10.0,44.8,11144222
Talos,ioos:station:wmo:42940:1,2021-06-01T17:27:00Z,27.6913,-91.1141,10.0,46.1,11144222
Talos,ioos:station:wmo:42940:1,2021-06-01T17:37:00Z,27.6913,-91.1141,10.0,45.6,11144222
Talos,ioos:station:wmo:42940:1,2021-06-01T17:47:00Z,27.6913,-91.1141,10.0,43.2,11144222
Talos,ioos:station:wmo:42940:1,2021-06-01T17:57:00Z,27.6913,-91.1141,10.0,42.9,11144222
Talos,ioos:station:wmo:42940:1,2021-06-01T18:07:00Z,27.6913,-91.1141,10.0,44.3,11144222
Talos,ioos:station:wmo:42940:1,2021-06-01T18:17:00Z,27.6913,-91.1141,10.0,35.0,11133222
Talos,ioos:station:wmo:42940:1,2021-06-01T18:27:00Z,27.6913,-91.1141,10.0,42.7,11144222
Talos,ioos:station:wmo:42940:1,2021-06-01T18:37:00Z,27.6913,-91.1141,10.0,37.6,11133222
Talos,ioos:station:wmo:42940:1,2021-06-01T18:47:00Z,27.6913,-91.1141,10.0,41.8,11144222
Talos,ioos:station:wmo:42940:1,2021-06-01T18:57:00Z,27.6913,-91.1141,10.0,45.6,11144222
Talos,ioos:station:wmo:42940:1,2021-06-01T19:07:00Z,27.6913,-91.1141,10.0,45.0,11144222
Talos,ioos:station:wmo:42940:1,2021-06-01T19:17:00Z,27.6913,-91.1141,10.0,44.5,11144222
Talos,ioos:station:wmo:42940:1,2021-06-01T19:27:00Z,27.6913,-91.1141,10.0,44.5,11144222
Talos,ioos:station:wmo:42940:1,2021-06-01T19:37:00Z,27.6913,-91.1141,10.0,43.2,11144222
Talos,ioos:station:wmo:42940:1,2021-06-01T19:47:00Z,27.6913,-91.1141,10.0,44.0,11144222
Talos,ioos:station:wmo:42940:1,2021-06-01T19:57:00Z,27.6913,-91.1141,10.0,44.3,11144222
Talos,ioos:station:wmo:42940:1,2021-06-01T20:07:00Z,27.6913,-91.1141,10.0,45.0,11144222
Talos,ioos:station:wmo:42940:1,2021-06-01T20:17:00Z,27.6913,-91.1141,10.0,44.5,11144222
Talos,ioos:station:wmo:42940:1,2021-06-01T20:27:00Z,27.6913,-91.1141,10.0,44.4,11144222
Talos,ioos:station:wmo:42940:1,2021-06-01T20:37:00Z,27.6913,-91.1141,10.0,43.3,11144222
Talos,ioos:station:wmo:42940:1,2021-06-01T20:47:00Z,27.6913,-91.1141,10.0,39.3,11133222
Talos,ioos:station:wmo:42940:1,2021-06-01T20:57:00Z,27.6913,-91.1141,10.0,44.0,11144222
Talos,ioos:station:wmo:42940:1,2021-06-01T21:07:00Z,27.6913,-91.1141,10.0,44.3,11144222
Talos,ioos:station:wmo:42940:1,2021-06-01T21:17:00Z,27.6913,-91.1141,10.0,44.3,11144222
Talos,ioos:station:wmo:42940:1,2021-06-01T21:27:00Z,27.6913,-91.1141,10.0,44.7,11144222
Talos,ioos:station:wmo:42940:1,2021-06-01T21:37:00Z,27.6913,-91.1141,10.0,44.3,11144222
Talos,ioos:station:wmo:42940:1,2021-06-01T21:47:00Z,27.6913,-91.1141,10.0,44.5,11144222
Talos,ioos:station:wmo:42940:1,2021-06-01T21:57:00Z,27.6913,-91.1141,10.0,44.2,11144222
Talos,ioos:station:wmo:42940:1,2021-06-01T22:07:00Z,27.6913,-91.1141,10.0,44.9,11144222
Talos,ioos:station:wmo:42940:1,2021-06-01T22:17:00Z,27.6913,-91.1141,10.0,45.1,11144222
Talos,ioos:station:wmo:42940:1,2021-06-01T22:27:00Z,27.6913,-91.1141,10.0,44.8,11144222
Talos,ioos:station:wmo:42940:1,2021-06-01T22:37:00Z,27.6913,-91.1141,10.0,43.5,11144222
Talos,ioos:station:wmo:42940:1,2021-06-01T22:47:00Z,27.6913,-91.1141,10.0,43.4,11144222
Talos,ioos:station:wmo:42940:1,2021-06-01T22:57:00Z,27.6913,-91.1141,10.0,43.5,11144222
Talos,ioos:station:wmo:42940:1,2021-06-01T23:07:00Z,27.6913,-91.1141,10.0,43.7,11144222
Talos,ioos:station:wmo:42940:1,2021-06-01T23:17:00Z,27.6913,-91.1141,10.0,42.9,11144222
Talos,ioos:station:wmo:42940:1,2021-06-01T23:27:00Z,27.6913,-91.1141,10.0,41.8,11144222
Talos,ioos:station:wmo:42940:1,2021-06-01T23:37:00Z,27.6913,-91.1141,10.0,41.1,11144222
Talos,ioos:station:wmo:42940:1,2021-06-01T23:47:00Z,27.6913,-91.1141,10.0,42.4,11144222
Talos,ioos:station:wmo:42940:1,2021-06-01T23:57:00Z,27.6913,-91.1141,10.0,43.5,11144222
Talos,ioos:station:wmo:42940:1,2021-06-02T00:07:00Z,27.6913,-91.1141,10.0,43.5,11144222
Talos,ioos:station:wmo:42940:1,2021-06-02T00:17:00Z,27.6913,-91.1141,10.0,41.7,11144222
Talos,ioos:station:wmo:42940:1,2021-06-02T00:27:00Z,27.6913,-91.1141,10.0,40.0,11133222
Talos,ioos:station:wmo:42940:1,2021-06-02T00:37:00Z,27.6913,-91.1141,10.0,40.6,11144222
Talos,ioos:station:wmo:42940:1,2021-06-02T00:47:00Z,27.6913,-91.1141,10.0,40.2,11144222
Talos,ioos:station:wmo:42940:1,2021-06-02T00:57:00Z,27.6913,-91.1141,10.0,41.0,11144222
Talos,ioos:station:wmo:42940:1,2021-06-02T01:07:00Z,27.6913,-91.1141,10.0,41.5,11144222
Talos,ioos:station:wmo:42940:1,2021-06-02T01:17:00Z,27.6913,-91.1141,10.0,43.6,11144222
Talos,ioos:station:wmo:42940:1,2021-06-02T01:27:00Z,27.6913,-91.1141,10.0,44.7,11144222
Talos,ioos:station:wmo:42940:1,2021-06-02T01:37:00Z,27.6913,-91.1141,10.0,43.6,11144222
Talos,ioos:station:wmo:42940:1,2021-06-02T01:47:00Z,27.6913,-91.1141,10.0,46.3,11144222
Talos,ioos:station:wmo:42940:1,2021-06-02T01:57:00Z,27.6913,-91.1141,10.0,46.0,11144222
Talos,ioos:station:wmo:42940:1,2021-06-02T02:07:00Z,27.6913,-91.1141,10.0,44.7,11144222
Talos,ioos:station:wmo:42940:1,2021-06-02T02:17:00Z,27.6913,-91.1141,10.0,44.7,11144222
Talos,ioos:station:wmo:42940:1,2021-06-02T02:27:00Z,27.6913,-91.1141,10.0,45.2,11144222
Talos,ioos:station:wmo:42940:1,2021-06-02T02:37:00Z,27.6913,-91.1141,10.0,42.0,11144222
Talos,ioos:station:wmo:42940:1,2021-06-02T02:47:00Z,27.6913,-91.1141,10.0,43.1,11144222
Talos,ioos:station:wmo:42940:1,2021-06-02T02:57:00Z,27.6913,-91.1141,10.0,42.4,11144222
Talos,ioos:station:wmo:42940:1,2021-06-02T03:07:00Z,27.6913,-91.1141,10.0,38.9,11133222
Talos,ioos:station:wmo:42940:1,2021-06-02T03:17:00Z,27.6913,-91.1141,10.0,42.5,11144222
Talos,ioos:station:wmo:42940:1,2021-06-02T03:27:00Z,27.6913,-91.1141,10.0,40.4,11144222
Talos,ioos:station:wmo:42940:1,2021-06-02T03:37:00Z,27.6913,-91.1141,10.0,39.5,11133222
Talos,ioos:station:wmo:42940:1,2021-06-02T03:47:00Z,27.6913,-91.1141,10.0,35.6,11133222
Talos,ioos:station:wmo:42940:1,2021-06-02T03:57:00Z,27.6913,-91.1141,10.0,36.1,11133222
Talos,ioos:station:wmo:42940:1,2021-06-02T04:07:00Z,27.6913,-91.1141,10.0,37.3,11133222
Talos,ioos:station:wmo:42940:1,2021-06-02T04:17:00Z,27.6913,-91.1141,10.0,39.9,11133222
Talos,ioos:station:wmo:42940:1,2021-06-02T04:27:00Z,27.6913,-91.1141,10.0,38.6,11133222
Talos,ioos:station:wmo:42940:1,2021-06-02T04:37:00Z,27.6913,-91.1141,10.0,40.7,11144222
Talos,ioos:station:wmo:42940:1,2021-06-02T04:47:00Z,27.6913,-91.1141,10.0,42.4,11144222
Talos,ioos:station:wmo:42940:1,2021-06-02T04:57:00Z,27.6913,-91.1141,10.0,43.1,11144222
Talos,ioos:station:wmo:42940:1,2021-06-02T05:07:00Z,27.6913,-91.1141,10.0,43.0,11144222
Talos,ioos:station:wmo:42940:1,2021-06-02T05:17:00Z,27.6913,-91.1141,10.0,43.5,11144222
Talos,ioos:station:wmo:42940:1,2021-06-02T05:27:00Z,27.6913,-91.1141,10.0,41.6,11144222
Talos,ioos:station:wmo:42940:1,2021-06-02T05:37:00Z,27.6913,-91.1141,10.0,41.1,11144222
Talos,ioos:station:wmo:42940:1,2021-06-02T05:47:00Z,27.6913,-91.1141,10.0,41.3,11144222
Talos,ioos:station:wmo:42940:1,2021-06-02T05:57:00Z,27.6913,-91.1141,10.0,32.9,11111222
Talos,ioos:station:wmo:42940:1,2021-06-02T06:07:00Z,27.6913,-91.1141,10.0,36.4,11133222
Talos,ioos:station:wmo:42940:1,2021-06-02T06:17:00Z,27.6913,-91.1141,10.0,34.5,11111222
Talos,ioos:station:wmo:42940:1,2021-06-02T06:27:00Z,27.6913,-91.1141,10.0,38.6,11133222
Talos,ioos:station:wmo:42940:1,2021-06-02T06:37:00Z,27.6913,-91.1141,10.0,38.3,11133222
Talos,ioos:station:wmo:42940:1,2021-06-02T06:47:00Z,27.6913,-91.1141,10.0,36.1,11133222
Talos,ioos:station:wmo:42940:1,2021-06-02T06:57:00Z,27.6913,-91.1141,10.0,39.4,11133222
Talos,ioos:station:wmo:42940:1,2021-06-02T07:07:00Z,27.6913,-91.1141,10.0,45.6,11144222
Talos,ioos:station:wmo:42940:1,2021-06-02T07:17:00Z,27.6913,-91.1141,10.0,45.7,11144222
Talos,ioos:station:wmo:42940:1,2021-06-02T07:27:00Z,27.6913,-91.1141,10.0,46.1,11144222
Talos,ioos:station:wmo:42940:1,2021-06-02T07:37:00Z,27.6913,-91.1141,10.0,39.1,11133222
Talos,ioos:station:wmo:42940:1,2021-06-02T07:47:00Z,27.6913,-91.1141,10.0,41.4,11144222
Talos,ioos:station:wmo:42940:1,2021-06-02T07:57:00Z,27.6913,-91.1141,10.0,42.0,11144222
Talos,ioos:station:wmo:42940:1,2021-06-02T08:07:00Z,27.6913,-91.1141,10.0,46.0,11144222
Talos,ioos:station:wmo:42940:1,2021-06-02T08:17:00Z,27.6913,-91.1141,10.0,45.6,11144222
Talos,ioos:station:wmo:42940:1,2021-06-02T08:27:00Z,27.6913,-91.1141,10.0,45.6,11144222
Talos,ioos:station:wmo:42940:1,2021-06-02T08:37:00Z,27.6913,-91.1141,10.0,43.0,11144222
Talos,ioos:station:wmo:42940:1,2021-06-02T08:47:00Z,27.6913,-91.1141,10.0,48.5,11144222
Talos,ioos:station:wmo:42940:1,2021-06-02T08:57:00Z,27.6913,-91.1141,10.0,48.2,11144222
Talos,ioos:station:wmo:42940:1,2021-06-02T09:07:00Z,27.6913,-91.1141,10.0,43.3,11144222
Talos,ioos:station:wmo:42940:1,2021-06-02T09:17:00Z,27.6913,-91.1141,10.0,46.1,11144222
Talos,ioos:station:wmo:42940:1,2021-06-02T09:27:00Z,27.6913,-91.1141,10.0,44.2,11144222
Talos,ioos:station:wmo:42940:1,2021-06-02T09:37:00Z,27.6913,-91.1141,10.0,41.9,11144222
Talos,ioos:station:wmo:42940:1,2021-06-02T09:47:00Z,27.6913,-91.1141,10.0,44.7,11144222
Talos,ioos:station:wmo:42940:1,2021-06-02T09:57:00Z,27.6913,-91.1141,10.0,43.5,11144222
Talos,ioos:station:wmo:42940:1,2021-06-02T10:07:00Z,27.6913,-91.1141,10.0,36.1,11133222
Talos,ioos:station:wmo:42940:1,2021-06-02T10:17:00Z,27.6913,-91.1141,10.0,43.5,11144222
Talos,ioos:station:wmo:42940:1,2021-06-02T10:27:00Z,27.6913,-91.1141,10.0,42.2,11144222
Talos,ioos:station:wmo:42940:1,2021-06-02T10:37:00Z,27.6913,-91.1141,10.0,39.1,11133222
Talos,ioos:station:wmo:42940:1,2021-06-02T10:47:00Z,27.6913,-91.1141,10.0,38.1,11133222
Talos,ioos:station:wmo:42940:1,2021-06-02T10:57:00Z,27.6913,-91.1141,10.0,41.7,11144222
Talos,ioos:station:wmo:42940:1,2021-06-02T11:07:00Z,27.6913,-91.1141,10.0,41.3,11144222
Talos,ioos:station:wmo:42940:1,2021-06-02T11:17:00Z,27.6913,-91.1141,10.0,43.0,11144222
Talos,ioos:station:wmo:42940:1,2021-06-02T11:27:00Z,27.6913,-91.1141,10.0,43.2,11144222
Talos,ioos:station:wmo:42940:1,2021-06-02T11:37:00Z,27.6913,-91.1141,10.0,44.5,11144222
Talos,ioos:station:wmo:42940:1,2021-06-02T11:47:00Z,27.6913,-91.1141,10.0,45.0,11144222
Talos,ioos:station:wmo:42940:1,2021-06-02T11:57:00Z,27.6913,-91.1141,10.0,44.0,11144222
Talos,ioos:station:wmo:42940:1,2021-06-02T12:07:00Z,27.6913,-91.1141,10.0,45.1,11144222
Talos,ioos:station:wmo:42940:1,2021-06-02T12:17:00Z,27.6913,-91.1141,10.0,46.3,11144222
Talos,ioos:station:wmo:42940:1,2021-06-02T12:27:00Z,27.6913,-91.1141,10.0,46.0,11144222
Talos,ioos:station:wmo:42940:1,2021-06-02T12:37:00Z,27.6913,-91.1141,10.0,46.0,11144222
Talos,ioos:station:wmo:42940:1,2021-06-02T12:47:00Z,27.6913,-91.1141,10.0,48.5,11144222
Talos,ioos:station:wmo:42940:1,2021-06-02T12:57:00Z,27.6913,-91.1141,10.0,49.0,11144222
Talos,ioos:station:wmo:42940:1,2021-06-02T13:07:00Z,27.6913,-91.1141,10.0,48.4,11144222
Talos,ioos:station:wmo:42940:1,2021-06-02T13:17:00Z,27.6913,-91.1141,10.0,46.8,11144222
Talos,ioos:station:wmo:42940:1,2021-06-02T13:27:00Z,27.6913,-91.1141,10.0,44.9,11144222
Talos,ioos:station:wmo:42940:1,2021-06-02T13:37:00Z,27.6913,-91.1141,10.0,43.4,11144222
Talos,ioos:station:wmo:42940:1,2021-06-02T13:47:00Z,27.6913,-91.1141,10.0,43.5,11144222
Talos,ioos:station:wmo:42940:1,2021-06-02T13:57:00Z,27.6913,-91.1141,10.0,44.1,11144222
Talos,ioos:station:wmo:42940:1,2021-06-02T14:07:00Z,27.6913,-91.1141,10.0,43.7,11144222
Talos,ioos:station:wmo:42940:1,2021-06-02T14:17:00Z,27.6913,-91.1141,10.0,43.1,11144222
Talos,ioos:station:wmo:42940:1,2021-06-02T14:27:00Z,27.6913,-91.1141,10.0,42.6,11144222
Talos,ioos:station:wmo:42940:1,2021-06-02T14:37:00Z,27.6913,-91.1141,10.0,42.9,11144222
Talos,ioos:station:wmo:42940:1,2021-06-02T14:47:00Z,27.6913,-91.1141,10.0,43.8,11144222
Talos,ioos:station:wmo:42940:1,2021-06-02T14:57:00Z,27.6913,-91.1141,10.0,43.7,11144222
Talos,ioos:station:wmo:42940:1,2021-06-02T15:07:00Z,27.6913,-91.1141,10.0,43.5,11144222
Talos,ioos:station:wmo:42940:1,2021-06-02T15:17:00Z,27.6913,-91.1141,10.0,43.3,11144222
Talos,ioos:station:wmo:42940:1,2021-06-02T15:27:00Z,27.6913,-91.1141,10.0,43.8,11144222
Talos,ioos:station:wmo:42940:1,2021-06-02T15:37:00Z,27.6913,-91.1141,10.0,43.5,11144222
Talos,ioos:station:wmo:42940:1,2021-06-02T15:47:00Z,27.6913,-91.1141,10.0,43.3,11144222
Talos,ioos:station:wmo:42940:1,2021-06-02T15:57:00Z,27.6913,-91.1141,10.0,42.7,11144222
Talos,ioos:station:wmo:42940:1,2021-06-02T16:07:00Z,27.6913,-91.1141,10.0,42.2,11144222
Talos,ioos:station:wmo:42940:1,2021-06-02T16:17:00Z,27.6913,-91.1141,10.0,42.8,11144222
Talos,ioos:station:wmo:42940:1,2021-06-02T16:27:00Z,27.6913,-91.1141,10.0,42.6,11144222
Talos,ioos:station:wmo:42940:1,2021-06-02T16:37:00Z,27.6913,-91.1141,10.0,41.5,11144222
Talos,ioos:station:wmo:42940:1,2021-06-02T16:47:00Z,27.6913,-91.1141,10.0,41.5,11144222
Talos,ioos:station:wmo:42940:1,2021-06-02T16:57:00Z,27.6913,-91.1141,10.0,42.0,11144222
Talos,ioos:station:wmo:42940:1,2021-06-02T17:07:00Z,27.6913,-91.1141,10.0,40.1,11144222
Talos,ioos:station:wmo:42940:1,2021-06-02T17:17:00Z,27.6913,-91.1141,10.0,43.5,11144222
Talos,ioos:station:wmo:42940:1,2021-06-02T17:27:00Z,27.6913,-91.1141,10.0,42.9,11144222
Talos,ioos:station:wmo:42940:1,2021-06-02T17:37:00Z,27.6913,-91.1141,10.0,41.9,11144222
Talos,ioos:station:wmo:42940:1,2021-06-02T17:47:00Z,27.6913,-91.1141,10.0,42.7,11144222
Talos,ioos:station:wmo:42940:1,2021-06-02T17:57:00Z,27.6913,-91.1141,10.0,42.7,11144222
Talos,ioos:station:wmo:42940:1,2021-06-02T18:07:00Z,27.6913,-91.1141,10.0,43.6,11144222
Talos,ioos:station:wmo:42940:1,2021-06-02T18:17:00Z,27.6913,-91.1141,10.0,42.6,11144222
Talos,ioos:station:wmo:42940:1,2021-06-02T18:27:00Z,27.6913,-91.1141,10.0,42.3,11144222
Talos,ioos:station:wmo:42940:1,2021-06-02T18:37:00Z,27.6913,-91.1141,10.0,43.4,11144222
Talos,ioos:station:wmo:42940:1,2021-06-02T18:47:00Z,27.6913,-91.1141,10.0,42.7,11144222
Talos,ioos:station:wmo:42940:1,2021-06-02T18:57:00Z,27.6913,-91.1141,10.0,43.5,11144222
Talos,ioos:station:wmo:42940:1,2021-06-02T19:07:00Z,27.6913,-91.1141,10.0,43.4,11144222
Talos,ioos:station:wmo:42940:1,2021-06-02T19:17:00Z,27.6913,-91.1141,10.0,42.5,11144222
Talos,ioos:station:wmo:42940:1,2021-06-02T19:27:00Z,27.6913,-91.1141,10.0,42.8,11144222
Talos,ioos:station:wmo:42940:1,2021-06-02T19:37:00Z,27.6913,-91.1141,10.0,42.5,11144222
Talos,ioos:station:wmo:42940:1,2021-06-02T19:47:00Z,27.6913,-91.1141,10.0,43.2,11144222
Talos,ioos:station:wmo:42940:1,2021-06-02T19:57:00Z,27.6913,-91.1141,10.0,41.7,11144222
Talos,ioos:station:wmo:42940:1,2021-06-02T20:07:00Z,27.6913,-91.1141,10.0,42.2,11144222
Talos,ioos:station:wmo:42940:1,2021-06-02T20:17:00Z,27.6913,-91.1141,10.0,41.5,11144222
Talos,ioos:station:wmo:42940:1,2021-06-02T20:27:00Z,27.6913,-91.1141,10.0,43.2,11144222
Talos,ioos:station:wmo:42940:1,2021-06-02T20:37:00Z,27.6913,-91.1141,10.0,41.8,11144222